彩虹-1 6星 (RADUGA-1 6)

导读

RADUGA 1-6(“虹”1号-6)是俄罗斯(原独联体CIS)“虹”系列第二代地球同步轨道通信卫星,2001年10月6日成功发射。作为该系列第八颗任务星,基于KAUR-3平台研制,配备6路C频段转发器,发射质量2320千克,设计寿命3年,由俄罗斯航天部队运维,主要为东半球(除极区)提供军事通信、电视转播及电话电报服务,是俄早期同步轨道通信网络的重要组成部分。

基本信息
目录编号:
26936
目录名称:
RADUGA 1-6
国际标识:
2001-045A
轨道中心:
EARTH
卫星名称:
彩虹-1 6星
卫星全名:
彩虹-1 6星 (RADUGA-1 6)
卫星状态:
在轨 (已飞行9106 天)
发射日期:
2001-10-06 UTC
国别 :
俄罗斯(独联体) (CIS)
星等 :
--
轨道信息
数据来源 国际轨道数据 AOE轨道数据
星历时间 2026-09-11T04:41:39+0800
9小时前
查看轨道信息
2026-09-06T04:00:00+0800
5天前
查看轨道信息
半长轴 42888.737km 42888.298km
偏心率 0.0019016 0.0018758
轨道倾角 14.670° 14.665°
近地点辐角 213.467° 213.416°
升交点赤经 14.009° 14.048°
平近点角 147.573° 177.997°
近地点 36429.042km 36429.711km
远地点 36592.158km 36590.611km
周期 1473.244分钟 1473.221分钟
每日圈数 0.977435 0.97745
详细信息
平衡模式:
三轴稳定
覆盖范围:
全球
运营商:
俄罗斯国家航天集团
运营商所在国:
俄罗斯
制造商(研发单位):
普里克拉德诺伊·梅哈尼基设计局
制造商所在国:
俄罗斯联邦
使用方式:
暂无
卫星简介
彩虹卫星(Raduga, Gran)是苏联用于军事和通信目的的一系列地球静止通信卫星。彩虹卫星旨在支持军事通信、Orbita地面电视网络,并在整个东半球(极地地区除外)提供电话和电报通信。该卫星已退役。
2D轨道图
3D轨道图
轨道高度分析图
轨道倾角分析图
轨道综合分析图
查看轨道综合分析图
与全量物体交会距离演化趋势
与全量物体交会风险概率演化趋势